Previsão horária em Cervenohorske Sedlo

Hoje, 2 Agosto, Segunda-feira

Tempo Temperatura Precipitação Vento Pressão Humidade
00:00 +10°C° 0.1 mm 1 m/s 681 mmHg 94%
01:00 +10°C° 0.1 mm 1 m/s 681 mmHg 94%
02:00 +10°C° 0 mm 1 m/s 681 mmHg 93%
03:00 +10°C° 0 mm 1 m/s 681 mmHg 93%
04:00 +11°C° 0 mm 1 m/s 681 mmHg 93%
05:00 +10°C° 0.1 mm 2 m/s 682 mmHg 92%
06:00 +12°C° 0.1 mm 2 m/s 682 mmHg 90%
07:00 +12°C° 0.1 mm 2 m/s 683 mmHg 89%
08:00 +14°C° 0.3 mm 2 m/s 683 mmHg 81%
09:00 +15°C° 0.3 mm 2 m/s 684 mmHg 72%
10:00 +17°C° 0.3 mm 3 m/s 684 mmHg 64%
11:00 +17°C° 0.2 mm 3 m/s 684 mmHg 62%
12:00 +18°C° 0.2 mm 4 m/s 685 mmHg 60%
13:00 +17°C° 0.2 mm 5 m/s 685 mmHg 59%
14:00 +18°C° 0.3 mm 4 m/s 685 mmHg 61%
15:00 +17°C° 0.3 mm 4 m/s 685 mmHg 63%
16:00 +17°C° 0.3 mm 4 m/s 685 mmHg 65%
17:00 +16°C° 0.3 mm 3 m/s 685 mmHg 72%
18:00 +14°C° 0.3 mm 2 m/s 684 mmHg 80%
19:00 +13°C° 0.3 mm 2 m/s 684 mmHg 87%
20:00 +12°C° 0 mm 2 m/s 684 mmHg 88%
21:00 +11°C° 0 mm 1 m/s 685 mmHg 90%
22:00 +11°C° 0 mm 1 m/s 685 mmHg 91%
23:00 +10°C° 0 mm 1 m/s 685 mmHg 91%

Amanhã, 3 Agosto, Terça-feira

Tempo Temperatura Precipitação Vento Pressão Humidade
00:00 +10°C° 0 mm 1 m/s 685 mmHg 91%
01:00 +10°C° 0 mm 1 m/s 685 mmHg 91%
02:00 +10°C° 0 mm 1 m/s 685 mmHg 91%
03:00 +9°C° 0 mm 1 m/s 685 mmHg 91%
04:00 +9°C° 0 mm 1 m/s 685 mmHg 91%
05:00 +11°C° 0 mm 1 m/s 686 mmHg 87%
06:00 +12°C° 0 mm 1 m/s 686 mmHg 83%
07:00 +14°C° 0 mm 1 m/s 686 mmHg 78%
08:00 +15°C° 0.1 mm 1 m/s 687 mmHg 72%
09:00 +16°C° 0.1 mm 1 m/s 687 mmHg 66%
10:00 +19°C° 0.1 mm 1 m/s 687 mmHg 60%
11:00 +19°C° 0.4 mm 1 m/s 687 mmHg 59%
12:00 +20°C° 0.4 mm 1 m/s 687 mmHg 57%
13:00 +20°C° 0.4 mm 1 m/s 686 mmHg 55%
14:00 +20°C° 0.2 mm 1 m/s 686 mmHg 57%
15:00 +20°C° 0.2 mm 1 m/s 686 mmHg 58%
16:00 +20°C° 0.2 mm 1 m/s 686 mmHg 59%
17:00 +19°C° 0 mm 1 m/s 685 mmHg 64%
18:00 +16°C° 0 mm 1 m/s 685 mmHg 69%
19:00 +15°C° 0 mm 1 m/s 685 mmHg 73%
20:00 +14°C° 0.1 mm 1 m/s 685 mmHg 75%
21:00 +14°C° 0.1 mm 1 m/s 685 mmHg 77%
22:00 +13°C° 0.1 mm 1 m/s 685 mmHg 78%
23:00 +13°C° 0.6 mm 1 m/s 685 mmHg 81%

Depois de amanhã, 4 Agosto, Quarta-feira

Tempo Temperatura Precipitação Vento Pressão Humidade
00:00 +13°C° 0.6 mm 1 m/s 685 mmHg 84%
01:00 +12°C° 0.6 mm 1 m/s 685 mmHg 87%
02:00 +12°C° 0.2 mm 1 m/s 685 mmHg 87%
03:00 +12°C° 0.2 mm 1 m/s 685 mmHg 88%
04:00 +12°C° 0.2 mm 1 m/s 685 mmHg 88%
05:00 +13°C° 0 mm 1 m/s 685 mmHg 86%
06:00 +14°C° 0 mm 1 m/s 685 mmHg 84%
07:00 +15°C° 0 mm 1 m/s 685 mmHg 82%
08:00 +16°C° 0.1 mm 1 m/s 686 mmHg 74%
09:00 +18°C° 0.1 mm 1 m/s 686 mmHg 67%
10:00 +20°C° 0.1 mm 1 m/s 686 mmHg 60%
11:00 +20°C° 0 mm 2 m/s 686 mmHg 56%
12:00 +20°C° 0 mm 2 m/s 686 mmHg 52%
13:00 +21°C° 0 mm 2 m/s 686 mmHg 47%
14:00 +21°C° 0 mm 2 m/s 686 mmHg 48%
15:00 +21°C° 0 mm 2 m/s 686 mmHg 49%
16:00 +21°C° 0 mm 1 m/s 685 mmHg 50%
17:00 +20°C° 0 mm 1 m/s 685 mmHg 57%
18:00 +18°C° 0 mm 1 m/s 685 mmHg 65%
19:00 +16°C° 0 mm 1 m/s 685 mmHg 72%
20:00 +15°C° 0 mm 1 m/s 684 mmHg 73%
21:00 +15°C° 0 mm 1 m/s 684 mmHg 74%
22:00 +14°C° 0 mm 1 m/s 684 mmHg 75%
23:00 +14°C° 0.2 mm 1 m/s 684 mmHg 78%

5 Agosto, Quinta-feira

Tempo Temperatura Precipitação Vento Pressão Humidade
00:00 +14°C° 0.2 mm 1 m/s 684 mmHg 82%
01:00 +13°C° 0.2 mm 1 m/s 684 mmHg 85%
02:00 +13°C° 1.7 mm 1 m/s 684 mmHg 89%
03:00 +12°C° 1.7 mm 1 m/s 683 mmHg 93%
04:00 +12°C° 1.7 mm 1 m/s 683 mmHg 96%
05:00 +12°C° 1.1 mm 1 m/s 683 mmHg 96%
06:00 +12°C° 1.1 mm 1 m/s 683 mmHg 96%
07:00 +12°C° 1.1 mm 1 m/s 683 mmHg 96%
08:00 +12°C° 0.9 mm 1 m/s 683 mmHg 94%
09:00 +13°C° 0.9 mm 1 m/s 683 mmHg 93%
10:00 +13°C° 0.9 mm 1 m/s 683 mmHg 92%
11:00 +14°C° 0.1 mm 1 m/s 683 mmHg 88%
12:00 +15°C° 0.1 mm 2 m/s 682 mmHg 83%
13:00 +15°C° 0.1 mm 2 m/s 682 mmHg 79%
14:00 +16°C° 0.3 mm 2 m/s 682 mmHg 77%
15:00 +16°C° 0.3 mm 2 m/s 682 mmHg 76%
16:00 +16°C° 0.3 mm 1 m/s 682 mmHg 74%
17:00 +15°C° 0.2 mm 1 m/s 682 mmHg 79%
18:00 +14°C° 0.2 mm 1 m/s 681 mmHg 84%
19:00 +13°C° 0.2 mm 1 m/s 681 mmHg 89%
20:00 +13°C° 0 mm 1 m/s 681 mmHg 90%
21:00 +12°C° 0 mm 1 m/s 681 mmHg 91%
22:00 +11°C° 0 mm 1 m/s 681 mmHg 92%
23:00 +11°C° 0 mm 1 m/s 681 mmHg 91%

6 Agosto, Sexta-feira

Tempo Temperatura Precipitação Vento Pressão Humidade
00:00 +11°C° 0 mm 1 m/s 681 mmHg 89%
01:00 +11°C° 0 mm 1 m/s 680 mmHg 88%
02:00 +10°C° 0 mm 1 m/s 680 mmHg 88%
03:00 +10°C° 0 mm 1 m/s 680 mmHg 88%
04:00 +10°C° 0 mm 1 m/s 680 mmHg 88%
05:00 +11°C° 0 mm 1 m/s 680 mmHg 84%
06:00 +13°C° 0 mm 1 m/s 681 mmHg 81%
07:00 +14°C° 0 mm 2 m/s 681 mmHg 78%
08:00 +15°C° 0 mm 2 m/s 681 mmHg 74%
09:00 +16°C° 0 mm 3 m/s 682 mmHg 71%
10:00 +17°C° 0 mm 4 m/s 682 mmHg 68%
11:00 +17°C° 0 mm 4 m/s 682 mmHg 66%
12:00 +18°C° 0 mm 4 m/s 682 mmHg 64%
13:00 +18°C° 0 mm 4 m/s 682 mmHg 62%
14:00 +19°C° 0 mm 4 m/s 682 mmHg 59%
15:00 +19°C° 0 mm 4 m/s 682 mmHg 56%
16:00 +20°C° 0 mm 4 m/s 682 mmHg 53%
17:00 +18°C° 0 mm 3 m/s 682 mmHg 61%
18:00 +17°C° 0 mm 3 m/s 682 mmHg 68%
19:00 +15°C° 0 mm 2 m/s 682 mmHg 75%
20:00 +15°C° 0 mm 2 m/s 682 mmHg 78%
21:00 +14°C° 0 mm 2 m/s 682 mmHg 81%
22:00 +13°C° 0 mm 2 m/s 683 mmHg 84%
23:00 +13°C° 0 mm 2 m/s 683 mmHg 86%

7 Agosto, Sábado

Tempo Temperatura Precipitação Vento Pressão Humidade
00:00 +12°C° 0 mm 2 m/s 683 mmHg 88%
01:00 +12°C° 0 mm 2 m/s 683 mmHg 90%
02:00 +10°C° 0 mm 2 m/s 683 mmHg 90%
03:00 +10°C° 0 mm 2 m/s 683 mmHg 91%
04:00 +10°C° 0 mm 2 m/s 683 mmHg 91%
05:00 +12°C° 0 mm 2 m/s 683 mmHg 87%
06:00 +13°C° 0 mm 2 m/s 684 mmHg 82%
07:00 +14°C° 0 mm 2 m/s 684 mmHg 78%
08:00 +16°C° 0 mm 2 m/s 684 mmHg 70%
09:00 +18°C° 0 mm 2 m/s 685 mmHg 62%
10:00 +19°C° 0 mm 2 m/s 685 mmHg 55%
11:00 +20°C° 0 mm 2 m/s 685 mmHg 54%
12:00 +21°C° 0 mm 3 m/s 685 mmHg 53%
13:00 +22°C° 0 mm 3 m/s 685 mmHg 53%
14:00 +24°C° 0 mm 3 m/s 685 mmHg 51%
15:00 +24°C° 0 mm 3 m/s 685 mmHg 50%
16:00 +25°C° 0 mm 3 m/s 685 mmHg 48%
17:00 +22°C° 0 mm 3 m/s 684 mmHg 54%
18:00 +21°C° 0 mm 2 m/s 684 mmHg 61%
19:00 +19°C° 0 mm 2 m/s 683 mmHg 67%
20:00 +18°C° 0 mm 2 m/s 683 mmHg 66%
21:00 +17°C° 0 mm 2 m/s 683 mmHg 65%
22:00 +16°C° 0 mm 1 m/s 683 mmHg 65%
23:00 +16°C° 0 mm 1 m/s 683 mmHg 64%
Mostrar mais

Necessitamos do seu Consentimento

A Meteoprog e os seus Fornecedores de Serviços podem armazenar e aceder a dados pessoais como cookies, identificadores do dispositivo ou outras tecnologias semelhantes existentes no seu dispositivo e processar estes dados para personalizar conteúdos e anúncios, assim como funcionalidades nas redes sociais e análise de tráfego.

  • Armazenar e/ou aceder a informações no seu dispositivo

    Os cookies, identificadores do dispositivo ou outras informações podem ser armazenados ou acedidos no seu dispositivo, para os fins acima indicados.

  • Anúncios e conteúdos personalizados, medição de anúncios e conteúdos, dados sobre o público-alvo e desenvolvimento de produtos

    Os anúncios e os conteúdos podem ser personalizados com base num perfil. Podem ser adicionados dados adicionais para uma maior personalização dos anúncios e dos conteúdos. A eficácia dos anúncios e dos conteúdos pode ser medida. Podem ser obtidas informações sobre o público que visualizou os anúncios e os conteúdos. Estes dados podem ser usados para desenvolver ou melhorar sistemas, softwares ou a experiência do utilizador.

Ao clicar em "Eu concordo”, permitirá o uso de cookies, identificadores do dispositivo e web beacons mencionados ou outras tecnologias semelhantes. As configurações do navegador do seu dispositivo podem ser alteradas.

Para certos fins, podem ser invocados interesses legítimos ao invés de consentimento. Pode ler mais informação sobre este assunto na nossa Política de Privacidade e Cookies.